Plovdiv, Bulgaria

1:49 AM EET on December 16, 2019 (GMT +0200)
Plovdiv

Weather History for LBPD - October, 2019

Change the Weather History Date:

Wednesday, October 9, 2019

  Actual Average Record
Temperature  
Mean Temperature 54 °F -  
Max Temperature 68 °F - - ()
Min Temperature 41 °F - - ()
Degree Days  
Heating Degree Days 10    
Growing Degree Days 4 (Base 50)    
Moisture  
Dew Point 46 °F    
Average Humidity 75    
Maximum Humidity 100    
Minimum Humidity 49    
Precipitation  
Precipitation 0.00 in - - ()
Sea Level Pressure  
Sea Level Pressure 30.20 in    
Wind  
Wind Speed 2 mph ()    
Max Wind Speed 7 mph    
Max Gust Speed -    
Visibility 6.1 miles    
Events      
T = Trace of Precipitation, MM = Missing Value Source: Averaged Metar Reports

Daily Weather History Graph

Daily Weather History Graph

Search for Another Location

Airport or City:

Astronomy

Oct. 09, 2019 Rise Set
Actual Time 7:26 AM EEST 6:49 PM EEST
Civil Twilight 6:58 AM EEST 7:17 PM EEST
Nautical Twilight 6:25 AM EEST 7:50 PM EEST
Astronomical Twilight 5:53 AM EEST 8:22 PM EEST
Moon 5:17 PM EEST (10/9) 2:48 AM EEST (10/9)
Length of Visible Light 12h 19m
Length of Day
11h 23m
Waxing Gibbous, 83% of the Moon is Illuminated
Oct 9
Waxing Gibbous
Oct 14
Full
Oct 21
Last Quarter
Oct 28
New
Nov 4
First Quarter

Hourly Weather History & Observations

Time (EEST) Temp. Windchill Dew Point Humidity Pressure Visibility Wind Dir Wind Speed Gust Speed Precip Events Conditions
12:00 AM 51.8 °F - 46.4 °F 82% 30.27 in 6.2 mi Calm Calm - N/A   Mostly Cloudy
12:30 AM 51.8 °F - 46.4 °F 82% 30.27 in 6.2 mi ENE 3.5 mph - N/A   Overcast
1:00 AM 50.0 °F - 46.4 °F 87% 30.27 in 6.2 mi East 2.3 mph - N/A   Mostly Cloudy
1:30 AM 50.0 °F - 46.4 °F 87% 30.27 in 6.2 mi SE 2.3 mph - N/A   Overcast
2:00 AM 48.2 °F - 44.6 °F 87% 30.27 in 6.2 mi Calm Calm - N/A   Unknown
2:30 AM 46.4 °F 44.3 °F 44.6 °F 93% 30.27 in 6.2 mi SW 4.6 mph - N/A   Unknown
3:00 AM 46.4 °F 45.2 °F 44.6 °F 93% 30.27 in 6.2 mi WSW 3.5 mph - N/A   Unknown
3:30 AM 46.4 °F - 42.8 °F 87% 30.27 in 6.2 mi Calm Calm - N/A   Mostly Cloudy
4:00 AM 44.6 °F - 42.8 °F 93% 30.27 in 6.2 mi Calm Calm - N/A   Mostly Cloudy
4:30 AM 44.6 °F - 42.8 °F 93% 30.24 in 6.2 mi Calm Calm - N/A   Unknown
5:00 AM 44.6 °F - 42.8 °F 93% 30.24 in 6.2 mi WNW 2.3 mph - N/A   Unknown
5:30 AM 42.8 °F - 41.0 °F 93% 30.24 in 6.2 mi Calm Calm - N/A   Unknown
6:00 AM 42.8 °F 41.1 °F 41.0 °F 93% 30.24 in 6.2 mi SW 3.5 mph - N/A   Unknown
6:30 AM 42.8 °F 41.1 °F 41.0 °F 93% 30.24 in 6.2 mi West 3.5 mph - N/A   Unknown
7:00 AM 41.0 °F 39.0 °F 41.0 °F 100% 30.24 in 6.2 mi WSW 3.5 mph - N/A   Partly Cloudy
7:30 AM 44.6 °F 43.1 °F 42.8 °F 93% 30.27 in 6.2 mi West 3.5 mph - N/A   Partly Cloudy
8:00 AM 44.6 °F - 42.8 °F 93% 30.27 in 4.3 mi Variable 1.2 mph - N/A   Unknown
8:30 AM 46.4 °F 45.2 °F 44.6 °F 93% 30.27 in 4.3 mi West 3.5 mph - N/A   Unknown
9:00 AM 48.2 °F - 46.4 °F 93% 30.27 in 5.6 mi Calm Calm - N/A   Unknown
9:30 AM 50.0 °F - 46.4 °F 87% 30.27 in 6.2 mi WNW 4.6 mph - N/A   Unknown
10:00 AM 51.8 °F - 46.4 °F 82% 30.27 in 6.2 mi WNW 6.9 mph - N/A   Unknown
10:30 AM 53.6 °F - 46.4 °F 77% 30.27 in 6.2 mi WNW 6.9 mph - N/A   Unknown
11:00 AM 55.4 °F - 46.4 °F 72% 30.27 in 6.2 mi Variable 4.6 mph - N/A   Partly Cloudy
11:30 AM 57.2 °F - 46.4 °F 67% 30.27 in 6.2 mi Variable 3.5 mph - N/A   Partly Cloudy
12:00 PM 57.2 °F - 46.4 °F 67% 30.24 in 6.2 mi Variable 4.6 mph - N/A   Partly Cloudy
12:30 PM 59.0 °F - 46.4 °F 63% 30.24 in 6.2 mi ENE 3.5 mph - N/A   Unknown
1:00 PM 60.8 °F - 46.4 °F 59% 30.21 in 6.2 mi Variable 2.3 mph - N/A   Unknown
1:30 PM 62.6 °F - 46.4 °F 55% 30.21 in 6.2 mi Variable 3.5 mph - N/A   Unknown
2:00 PM 64.4 °F - 46.4 °F 52% 30.18 in 6.2 mi NE 3.5 mph - N/A   Unknown
2:30 PM 64.4 °F - 46.4 °F 52% 30.15 in 6.2 mi ENE 5.8 mph - N/A   Unknown
3:00 PM 66.2 °F - 46.4 °F 49% 30.15 in 6.2 mi Variable 3.5 mph - N/A   Unknown
3:30 PM 68.0 °F - 48.2 °F 49% 30.15 in 6.2 mi SSE 4.6 mph - N/A   Unknown
4:00 PM 68.0 °F - 48.2 °F 49% 30.12 in 6.2 mi Variable 5.8 mph - N/A   Unknown
4:30 PM 68.0 °F - 48.2 °F 49% 30.12 in 6.2 mi Variable 2.3 mph - N/A   Unknown
5:00 PM 68.0 °F - 48.2 °F 49% 30.12 in 6.2 mi Variable 2.3 mph - N/A   Unknown
5:30 PM 68.0 °F - 48.2 °F 49% 30.09 in 6.2 mi SE 3.5 mph - N/A   Unknown
6:00 PM 68.0 °F - 50.0 °F 52% 30.09 in 6.2 mi Calm Calm - N/A   Unknown
6:30 PM 66.2 °F - 50.0 °F 56% 30.09 in 6.2 mi Variable 1.2 mph - N/A   Unknown
7:00 PM 60.8 °F - 50.0 °F 68% 30.09 in 6.2 mi SW 3.5 mph - N/A   Unknown
7:30 PM 60.8 °F - 50.0 °F 68% 30.09 in 6.2 mi SSW 3.5 mph - N/A   Unknown
8:00 PM 57.2 °F - 48.2 °F 72% 30.09 in 6.2 mi Calm Calm - N/A   Unknown
8:30 PM 57.2 °F - 48.2 °F 72% 30.09 in 6.2 mi Calm Calm - N/A   Unknown
9:00 PM 57.2 °F - 48.2 °F 72% 30.09 in 6.2 mi SW 3.5 mph - N/A   Unknown
9:30 PM 55.4 °F - 48.2 °F 77% 30.09 in 6.2 mi Variable 1.2 mph - N/A   Unknown
10:00 PM 55.4 °F - 46.4 °F 72% 30.09 in 6.2 mi Calm Calm - N/A   Unknown
10:30 PM 53.6 °F - 46.4 °F 77% 30.09 in 6.2 mi South 3.5 mph - N/A   Unknown
11:00 PM 51.8 °F - 44.6 °F 76% 30.09 in 6.2 mi SSW 5.8 mph - N/A   Unknown
11:30 PM 51.8 °F - 46.4 °F 82% 30.09 in 6.2 mi Calm Calm - N/A   Unknown